Find Starlink 5747

NORAD ID: 55574 Int'l Des: 2023-020 Owner: SPXS Country: US Constellation: starlink operational
LEOCIRCULAR

リアルタイム位置

3D地球を読み込み中...

Starlink 5747について

説明を読み込み中...

次回通過

Passes for default location (London). Set your location on the main map for personalized predictions.

高度履歴

Loading altitude history...

軌道要素

1 55574U 23020F 26126.11727384 .00000496 00000-0 28800-4 0 9994
2 55574 43.0038 44.4582 0001336 264.9015 95.1683 15.25906006177655
Epoch: May 6, 2026 • Age: 10 hours

現在のステータス

高度 490.5 km
速度 7.62 km/s
衛星直下点 36.12°N, 115.14°E
打ち上げ日 Feb 12, 2023
運用期間 3.2 years
タイプ internet

技術仕様

分類 Payload
質量 305.00 kg
乾燥質量 290.00 kg
総質量 305.00 kg
長さ 0.20 m
直径 2.80 m
スパン 9.00 m
形状 Box + pan
製造者 SPXS
バスタイプ Starlink
フェーズステータス In Orbit
所有者/国 SPXS/US

Most Searched